Wind_Speed
22 22 21 21 22 23 24 24 24 23 23 22 22 22 22 22 23 24 25 24 24 25 25 25 25 25 25 25 25 25 25 25 25 25 25 26 25 25 25 26 26 26 26 27
23 23 23 24 24 24 24 24 24 24 24 23 23 23 23 23 23 24 24 24 25 25 25 24 25 24 24 24 24 24 25 25 26 26 26 26 26 26 26 26 26 26 26 26
24 24 25 25 25 25 25 26 26 25 24 24 23 23 23 23 23 23 24 24 25 25 24 24 24 24 24 25 25 25 25 26 27 26 26 26 26 26 26 26 26 26 26 26
25 25 26 25 25 25 25 25 24 24 24 24 24 24 24 23 23 23 23 23 24 24 24 25 25 25 25 25 25 25 26 27 27 27 26 26 27 27 27 27 27 27 27 27
26 26 26 24 24 25 25 24 24 24 24 24 24 25 26 25 24 23 23 24 24 25 25 26 26 26 26 26 26 26 26 26 27 27 27 27 27 27 28 27 27 27 27 27
25 25 24 23 23 24 25 25 24 24 24 25 26 26 25 25 24 24 25 25 25 25 26 26 26 27 27 27 27 27 27 27 27 27 28 27 27 27 27 27 27 27 27 26
23 24 23 22 22 22 23 23 24 25 25 25 25 25 26 26 26 26 26 26 26 26 26 27 27 27 27 28 28 28 28 27 27 28 28 27 27 27 26 26 26 26 26 26
23 24 23 22 22 23 23 23 23 24 24 25 25 25 26 27 27 27 26 26 26 26 26 27 28 27 28 28 28 28 28 28 27 27 28 27 27 26 25 25 26 26 25 24
25 24 24 23 23 23 24 24 24 25 25 25 25 26 26 27 27 27 27 26 26 27 27 28 28 28 28 28 28 28 28 28 28 28 28 27 27 26 26 25 25 25 24 24
25 24 25 25 25 25 24 24 24 24 24 24 25 25 27 27 28 28 28 27 27 27 27 27 27 27 27 27 27 27 27 28 28 28 27 27 27 27 26 25 25 25 24 24
24 24 25 25 25 25 25 25 24 24 25 25 26 27 27 27 27 27 27 28 27 27 27 27 27 27 27 27 27 27 27 28 28 28 27 27 27 27 26 26 25 25 24 24
24 24 25 25 26 26 25 25 25 25 25 26 27 27 27 27 27 27 27 27 28 28 28 28 28 28 28 28 28 28 28 28 28 28 28 28 27 27 27 26 25 25 24 24
25 25 25 24 24 25 25 25 25 26 26 26 26 26 26 26 27 27 27 28 28 28 28 28 28 28 28 29 29 29 29 29 29 28 28 28 28 27 26 25 25 24 24 24
25 26 26 26 25 25 25 25 26 26 26 26 26 26 26 27 27 27 28 29 29 29 28 28 29 29 29 29 29 29 30 30 30 29 28 28 27 27 26 26 25 25 24 24
25 26 26 26 26 26 26 26 26 26 26 27 27 27 28 28 28 28 29 29 29 29 29 29 29 29 30 30 30 30 30 30 29 29 28 28 27 27 26 26 26 25 25 25
25 26 26 26 26 26 25 26 26 26 27 27 28 29 29 28 28 28 29 29 29 29 29 29 29 29 30 30 30 30 30 30 29 28 28 27 26 26 26 26 26 26 25 25
25 25 26 26 26 26 26 26 26 27 27 28 28 28 28 28 28 28 28 29 28 28 28 28 28 29 29 29 29 29 29 28 28 27 26 25 25 25 25 25 25 25 25 25
24 24 24 24 25 25 25 25 26 26 27 27 28 28 28 28 28 28 29 28 28 28 29 29 29 29 29 29 29 29 28 28 27 27 26 26 25 25 24 24 23 23 23 24
23 23 24 23 23 24 25 25 26 26 26 27 27 27 27 26 26 27 27 28 27 28 28 28 28 28 29 29 29 29 28 28 27 26 26 25 25 24 24 23 23 23 23 23
22 22 22 22 22 23 24 24 25 26 26 26 26 26 25 25 25 26 26 27 27 26 26 27 28 28 28 29 29 28 27 27 26 25 25 25 24 24 23 23 23 24 23 23
21 21 21 22 22 22 23 24 24 24 24 24 24 24 24 25 25 25 26 26 25 26 26 27 27 28 28 28 27 27 26 26 26 25 25 24 24 23 23 23 23 23 22 22
20 20 21 22 21 22 22 22 22 22 22 22 23 23 23 24 24 25 25 25 25 26 27 27 27 27 26 26 26 25 25 25 25 24 24 24 23 23 23 22 22 22 21 21
19 20 20 20 20 20 21 21 21 21 21 22 22 23 23 24 24 24 25 25 26 26 26 26 27 27 26 25 25 25 25 24 24 23 24 23 23 22 22 22 22 21 20 20
18 18 18 19 19 19 20 20 20 21 21 22 22 23 23 24 23 23 24 24 25 25 25 26 26 25 25 25 25 25 24 24 24 23 23 23 22 22 21 21 20 20 19 18
17 18 18 19 19 19 19 19 20 20 21 22 22 23 23 23 23 23 24 24 24 24 24 24 24 24 24 24 24 23 23 23 22 21 21 21 21 21 21 20 19 18 18 17
17 17 18 19 19 19 19 20 20 20 21 22 22 22 23 23 23 23 23 23 23 23 23 23 23 23 23 23 23 23 23 22 21 20 20 20 20 19 18 17 16 16 16 15
16 17 17 18 19 19 19 20 20 21 21 22 22 21 22 22 22 22 22 22 23 22 22 22 21 21 21 21 21 21 21 21 20 20 20 19 18 17 16 15 15 15 15 15
Wind_Direction
250 251 254 256 257 258 260 262 265 267 268 269 270 272 275 278 279 280 282 283 285 287 288 289 290 293 295 295 296 296 296 295 293 294 292 292 295 294 293 293 291 288 286 284
251 251 253 255 256 258 259 261 264 266 267 269 272 274 276 280 281 281 281 283 286 288 289 289 290 294 296 297 297 297 297 296 296 296 295 294 294 294 294 294 293 290 288 287
252 252 255 256 257 258 260 261 264 265 268 271 273 275 278 281 281 281 282 284 286 287 288 288 291 294 295 296 296 296 296 296 296 295 294 292 291 293 293 292 292 291 290 289
255 256 257 259 259 261 261 263 264 266 268 270 271 274 278 280 282 283 283 285 286 286 286 287 289 292 294 295 295 296 297 298 298 297 295 293 292 293 294 293 292 291 289 288
258 259 259 258 258 260 262 262 265 266 266 268 271 274 277 278 280 281 281 283 286 286 285 287 289 291 293 294 295 296 298 299 299 298 298 296 295 294 293 293 291 290 289 289
259 260 261 262 262 263 262 262 264 265 267 269 271 273 275 277 278 280 281 284 285 286 286 287 289 291 291 292 294 295 297 297 298 298 297 295 295 295 294 292 290 290 290 289
259 261 264 265 264 264 263 263 263 265 268 268 270 272 274 276 278 280 282 283 285 286 287 288 290 290 290 291 293 294 295 297 298 299 297 296 298 296 292 293 292 292 290 290
259 262 264 264 264 264 265 266 265 265 267 270 271 271 273 276 278 280 281 284 286 286 287 289 290 291 290 291 292 294 294 295 297 298 299 298 297 297 296 295 295 293 291 290
260 262 263 263 264 265 266 267 267 267 268 272 272 272 274 276 279 281 283 283 285 286 288 290 291 291 291 291 292 292 293 295 297 299 300 300 299 298 298 297 295 295 292 291
260 261 261 263 263 264 266 267 269 269 270 271 271 273 275 277 279 281 282 284 285 287 289 291 291 290 290 291 291 292 293 295 297 298 298 299 299 298 298 297 295 293 293 290
262 262 262 263 264 265 266 267 268 268 270 270 270 272 275 277 279 282 285 286 288 290 290 290 290 291 291 291 291 292 293 294 296 296 296 297 297 296 296 295 294 292 292 290
262 263 265 265 264 264 266 267 267 268 271 272 272 273 275 278 280 282 284 286 288 289 290 290 290 290 290 291 292 293 292 293 294 294 295 295 295 295 293 292 291 291 290 290
261 262 264 265 265 265 266 268 269 269 272 272 272 275 277 279 281 283 284 286 287 288 289 290 290 291 291 292 292 293 293 293 294 294 294 295 295 294 292 291 291 291 291 290
259 261 263 264 266 267 267 269 271 272 272 271 274 276 278 279 280 282 283 284 286 287 288 289 290 290 291 291 291 292 293 294 294 293 292 292 292 292 291 290 290 290 290 289
259 261 262 263 266 267 267 269 271 272 273 275 275 276 278 279 280 281 282 283 285 286 287 288 288 289 291 291 291 292 293 294 294 293 292 291 290 290 290 290 289 288 288 288
261 262 263 265 267 268 268 269 270 272 274 276 276 277 278 280 281 281 282 284 285 286 287 287 287 289 290 291 292 293 294 295 295 294 293 292 290 290 289 288 288 287 288 288
263 264 266 267 267 269 270 270 272 273 275 276 278 279 280 280 281 282 283 284 285 286 287 287 288 289 290 291 292 293 294 294 295 295 293 294 293 292 291 290 290 290 290 289
264 266 267 269 270 270 271 272 273 275 277 277 278 280 281 282 282 283 283 284 285 286 288 288 289 290 292 293 293 294 294 294 294 294 293 294 293 292 291 291 290 291 291 290
266 268 269 270 272 273 273 274 276 277 279 280 280 280 282 283 284 284 284 284 286 287 288 288 288 290 292 293 293 293 292 293 294 294 293 294 293 291 291 290 290 290 290 291
267 269 271 271 273 274 276 277 277 278 279 280 281 281 280 282 284 285 286 286 287 287 287 287 288 289 291 292 292 292 291 293 294 294 293 293 292 291 290 288 289 289 289 290
267 269 270 271 273 275 276 277 277 278 279 280 282 282 282 282 283 285 287 287 286 286 286 287 289 290 291 292 293 293 292 292 293 293 292 291 290 290 289 289 290 291 290 289
266 267 269 271 272 273 275 278 280 281 281 282 283 283 284 285 285 286 288 288 287 286 285 286 288 290 292 292 292 293 292 292 292 292 290 290 289 288 289 289 290 290 289 287
268 268 270 270 272 276 279 280 281 282 283 283 284 284 284 286 287 287 288 289 289 289 287 285 287 289 290 290 291 292 292 291 291 291 290 289 288 288 287 288 289 289 289 287
270 270 271 273 275 276 277 279 280 281 283 285 286 287 287 287 287 289 290 291 291 291 290 288 287 288 288 289 290 291 292 291 290 290 288 288 288 288 287 287 287 289 289 288
274 273 274 276 278 278 278 278 279 281 284 286 287 287 287 287 287 289 292 293 292 291 291 291 290 288 288 289 290 290 290 290 290 289 287 287 288 288 288 287 286 286 288 287
278 277 278 279 280 281 282 282 283 284 286 286 287 288 288 289 290 291 292 293 293 293 293 293 290 288 289 290 290 290 289 288 290 290 289 290 291 290 288 285 282 281 284 286
276 278 279 280 281 283 285 286 287 287 287 288 289 290 291 291 291 291 291 293 293 293 295 295 294 292 292 293 293 292 291 289 289 289 290 290 290 289 287 285 282 280 282 286
Height
5807 5808 5809 5811 5812 5813 5814 5815 5816 5817 5818 5819 5819 5819 5820 5819 5819 5819 5818 5817 5816 5814 5812 5811 5809 5807 5805 5803 5801 5799 5796 5794 5792 5790 5788 5785 5783 5781 5780 5778 5776 5775 5774 5772
5801 5803 5804 5805 5807 5807 5808 5809 5810 5811 5812 5813 5813 5813 5813 5813 5813 5812 5812 5811 5809 5808 5806 5805 5803 5801 5799 5797 5795 5793 5791 5788 5786 5783 5781 5779 5777 5775 5773 5771 5769 5768 5766 5765
5796 5797 5798 5799 5801 5802 5803 5804 5805 5806 5808 5807 5807 5807 5807 5807 5806 5806 5805 5804 5803 5801 5800 5799 5797 5795 5793 5791 5789 5787 5784 5782 5779 5777 5775 5773 5770 5768 5766 5764 5762 5760 5759 5757
5790 5792 5792 5796 5795 5796 5797 5798 5799 5800 5801 5801 5801 5801 5801 5800 5800 5799 5798 5798 5796 5795 5794 5793 5791 5789 5787 5785 5783 5780 5778 5775 5772 5770 5768 5766 5764 5761 5759 5757 5755 5753 5751 5749
5784 5784 5786 5789 5789 5790 5791 5792 5793 5794 5794 5794 5794 5794 5794 5794 5793 5793 5792 5791 5790 5789 5788 5786 5784 5782 5780 5778 5776 5774 5771 5769 5766 5763 5761 5759 5756 5754 5752 5749 5748 5746 5744 5742
5778 5778 5780 5784 5784 5784 5786 5786 5787 5787 5788 5788 5788 5788 5788 5788 5787 5786 5786 5785 5783 5782 5781 5779 5777 5775 5773 5771 5769 5767 5764 5762 5759 5756 5753 5751 5749 5746 5744 5742 5740 5738 5737 5735
5772 5773 5774 5777 5777 5778 5780 5781 5781 5781 5781 5782 5782 5782 5782 5781 5780 5780 5779 5778 5776 5775 5774 5772 5770 5768 5767 5765 5762 5760 5757 5755 5752 5748 5746 5744 5741 5739 5737 5735 5733 5731 5729 5728
5766 5767 5771 5770 5771 5772 5773 5773 5774 5774 5775 5775 5775 5775 5774 5774 5773 5772 5771 5770 5769 5768 5766 5765 5763 5761 5759 5757 5755 5752 5750 5747 5745 5742 5739 5737 5734 5732 5730 5728 5726 5724 5722 5720
5761 5764 5764 5764 5765 5765 5766 5767 5767 5768 5768 5768 5768 5768 5767 5767 5766 5765 5764 5763 5762 5760 5759 5757 5755 5754 5752 5750 5747 5745 5742 5740 5737 5735 5732 5729 5727 5725 5723 5720 5718 5716 5715 5713
5754 5755 5756 5757 5758 5758 5759 5760 5760 5761 5761 5761 5761 5760 5760 5760 5759 5758 5757 5756 5754 5753 5751 5750 5748 5746 5744 5742 5740 5737 5735 5732 5730 5727 5725 5722 5720 5718 5715 5713 5711 5709 5708 5706
5747 5748 5749 5750 5751 5751 5752 5753 5753 5754 5754 5754 5754 5753 5753 5752 5751 5750 5749 5748 5746 5745 5743 5742 5740 5738 5736 5734 5732 5730 5727 5725 5723 5720 5718 5715 5713 5710 5708 5706 5704 5702 5701 5699
5740 5741 5742 5743 5744 5744 5745 5746 5746 5746 5746 5746 5746 5745 5745 5744 5743 5742 5741 5740 5739 5737 5735 5734 5732 5730 5728 5726 5724 5722 5720 5717 5715 5713 5710 5707 5705 5702 5700 5698 5697 5695 5693 5692
5733 5734 5735 5736 5736 5737 5738 5738 5738 5739 5739 5738 5738 5737 5737 5736 5736 5735 5734 5732 5730 5729 5727 5725 5723 5722 5720 5718 5716 5714 5712 5709 5707 5705 5702 5699 5697 5695 5692 5691 5689 5687 5685 5684
5726 5727 5727 5728 5729 5730 5730 5731 5731 5731 5731 5731 5730 5730 5729 5728 5728 5727 5725 5724 5722 5721 5719 5717 5715 5714 5712 5710 5708 5706 5703 5701 5698 5696 5693 5691 5689 5686 5685 5683 5681 5679 5678 5676
5718 5719 5720 5720 5721 5722 5722 5723 5723 5723 5723 5723 5722 5722 5721 5720 5720 5718 5717 5715 5714 5712 5711 5709 5707 5705 5703 5701 5699 5697 5694 5692 5689 5687 5684 5682 5680 5678 5676 5675 5673 5671 5670 5668
5711 5711 5712 5713 5714 5714 5715 5715 5716 5716 5715 5715 5714 5714 5713 5712 5711 5710 5708 5707 5705 5704 5702 5700 5699 5697 5695 5693 5691 5688 5686 5683 5680 5678 5676 5674 5672 5670 5668 5666 5665 5663 5662 5660
5704 5704 5705 5706 5707 5707 5707 5708 5708 5708 5707 5706 5706 5705 5704 5703 5702 5701 5700 5698 5696 5695 5693 5692 5690 5688 5686 5684 5682 5680 5677 5675 5672 5670 5668 5666 5663 5662 5660 5658 5657 5655 5654 5652
5697 5697 5698 5699 5699 5700 5699 5699 5699 5699 5698 5698 5697 5696 5695 5694 5693 5692 5691 5689 5688 5686 5685 5683 5681 5679 5678 5676 5673 5671 5669 5666 5664 5662 5660 5658 5655 5654 5652 5650 5649 5647 5646 5644
5689 5690 5691 5691 5692 5692 5692 5691 5691 5690 5690 5689 5688 5687 5686 5685 5684 5683 5681 5680 5679 5678 5676 5674 5673 5671 5669 5667 5665 5662 5660 5658 5656 5654 5651 5649 5647 5646 5644 5643 5641 5640 5638 5637
5682 5683 5684 5684 5684 5684 5684 5683 5683 5682 5681 5681 5680 5678 5678 5677 5676 5674 5673 5672 5670 5669 5668 5666 5664 5663 5661 5658 5656 5653 5651 5649 5647 5645 5643 5641 5640 5638 5636 5635 5634 5632 5631 5629
5676 5676 5676 5677 5677 5677 5676 5676 5675 5674 5673 5673 5672 5670 5669 5668 5667 5666 5665 5664 5663 5661 5659 5658 5656 5654 5652 5650 5648 5645 5643 5641 5639 5638 5636 5634 5632 5631 5629 5628 5627 5625 5624 5622
5669 5669 5670 5670 5670 5669 5669 5668 5668 5667 5666 5665 5664 5663 5662 5661 5660 5658 5657 5656 5655 5653 5651 5650 5648 5646 5644 5642 5640 5638 5636 5634 5632 5630 5629 5627 5626 5624 5623 5621 5620 5618 5617 5616
5663 5663 5663 5663 5663 5663 5662 5661 5660 5660 5659 5658 5657 5656 5654 5653 5652 5651 5650 5649 5647 5645 5643 5641 5640 5638 5636 5634 5632 5631 5629 5627 5625 5623 5622 5620 5619 5617 5616 5614 5613 5611 5610 5609
5657 5657 5657 5657 5656 5656 5655 5655 5654 5653 5652 5651 5650 5648 5647 5646 5645 5644 5642 5641 5639 5637 5635 5634 5632 5630 5628 5627 5625 5623 5622 5620 5618 5617 5615 5613 5612 5610 5609 5608 5606 5605 5604 5603
5652 5651 5651 5651 5650 5649 5649 5648 5647 5646 5645 5644 5643 5641 5640 5639 5638 5636 5635 5633 5631 5630 5628 5626 5624 5623 5621 5619 5618 5616 5615 5613 5611 5610 5608 5607 5605 5604 5602 5601 5600 5599 5598 5597
5646 5646 5645 5645 5644 5643 5642 5642 5641 5640 5638 5637 5636 5635 5633 5632 5630 5629 5628 5626 5624 5623 5621 5619 5617 5615 5614 5612 5611 5609 5607 5606 5605 5603 5602 5601 5599 5598 5596 5595 5594 5594 5593 5593
5641 5640 5640 5639 5638 5637 5636 5635 5634 5633 5632 5630 5629 5628 5626 5625 5623 5622 5621 5619 5618 5616 5614 5612 5610 5609 5607 5606 5604 5602 5601 5599 5598 5597 5596 5594 5593 5592 5591 5590 5589 5589 5588 5588